GW3210 Weather Reports


time (UTC)temp
C
wind
direction
speed
KPH
gust
KPH
rain 1hr
cm
rain 24hr
cm
rain mn
cm
humidity
%
barometer
mb
20260504221117 21 248 6.4 11.3 0.00 0.00 0.00 44 1013.7
20260504220117 21 270 4.8 6.4 0.00 0.00 0.00 45 1013.8
20260504215137 21 225 4.8 8.0 0.00 0.00 0.00 43 1013.8
20260504214117 21 248 6.4 11.3 0.00 0.00 0.00 44 1013.9
20260504213117 21 158 3.2 8.0 0.00 0.00 0.00 44 1014.0
20260504212117 20 248 6.4 11.3 0.00 0.00 0.00 45 1014.0
20260504211137 20 248 4.8 8.0 0.00 0.00 0.00 45 1014.1
20260504210116 20 158 4.8 6.4 0.00 0.00 0.00 46 1014.3
20260504205138 20 203 4.8 6.4 0.00 0.00 0.00 46 1014.4
20260504204137 20 135 4.8 8.0 0.00 0.00 0.00 47 1014.5
20260504203117 20 270 3.2 6.4 0.00 0.00 0.00 49 1014.6
20260504202117 19 0.0 1.6 0.00 0.00 0.00 50 1014.5
20260504201117 19 248 1.6 3.2 0.00 0.00 0.00 49 1014.7
20260504200116 18 248 4.8 8.0 0.00 0.00 0.00 50 1014.8
20260504195116 18 203 1.6 3.2 0.00 0.00 0.00 49 1014.9
20260504194116 18 203 4.8 6.4 0.00 0.00 0.00 52 1014.9
20260504193117 17 203 3.2 6.4 0.00 0.00 0.00 52 1014.9
20260504192116 17 270 4.8 11.3 0.00 0.00 0.00 53 1015.0
20260504191138 17 248 6.4 12.9 0.00 0.00 0.00 53 1015.1
20260504190116 17 225 4.8 8.0 0.00 0.00 0.00 54 1015.1
20260504185117 16 225 3.2 4.8 0.00 0.00 0.00 57 1015.1
20260504184137 15 270 8.0 11.3 0.00 0.00 0.00 58 1015.3
20260504183117 15 113 4.8 6.4 0.00 0.00 0.00 57 1015.2
20260504182117 15 203 1.6 3.2 0.00 0.00 0.00 58 1015.2
20260504181116 14 248 6.4 11.3 0.00 0.00 0.00 59 1015.1
20260504180117 14 135 6.4 8.0 0.00 0.00 0.00 59 1015.3
20260504175116 13 180 1.6 3.2 0.00 0.00 0.00 59 1015.2
20260504174116 14 270 6.4 11.3 0.00 0.00 0.00 59 1015.2
20260504173137 14 158 3.2 4.8 0.00 0.00 0.00 60 1015.2
20260504172116 13 158 3.2 3.2 0.00 0.00 0.00 60 1015.1
20260504171137 13 135 3.2 8.0 0.00 0.00 0.00 61 1015.1
20260504170117 13 135 8.0 11.3 0.00 0.00 0.00 62 1015.1
20260504160116 13 158 3.2 3.2 0.00 0.00 0.00 62 1015.1
20260504151116 12 135 9.7 14.5 0.00 0.00 0.00 63 1014.8
20260504150116 12 135 6.4 8.0 0.00 0.00 0.00 63 1014.6
20260504141116 12 135 4.8 8.0 0.00 0.00 0.00 64 1014.1
20260504140115 12 158 1.6 4.8 0.00 0.00 0.00 64 1014.0
20260504130116 12 135 6.4 12.9 0.00 0.00 0.00 63 1013.1
20260504120116 14 158 6.4 11.3 0.00 0.00 0.00 59 1012.3
20260504110136 16 135 4.8 8.0 0.00 0.00 0.00 54 1011.9
20260504100137 17 158 6.4 11.3 0.00 0.00 0.00 48 1011.3
20260504081138 18 158 1.6 3.2 0.00 0.00 0.00 44 1010.6
20260504080137 18 158 3.2 6.4 0.00 0.00 0.00 44 1010.6
20260504070117 20 180 3.2 3.2 0.00 0.00 0.00 43 1010.3
20260504060116 22 293 3.2 4.8 0.00 0.00 0.00 32 1010.0
20260504050116 23 293 6.4 11.3 0.00 0.00 0.00 31 1009.5
20260504045115 24 293 6.4 9.7 0.00 0.00 0.00 31 1009.6
20260504044115 24 293 6.4 11.3 0.00 0.00 0.00 31 1009.4
20260504043115 25 315 4.8 6.4 0.00 0.00 0.00 31 1009.3
20260504042116 25 293 3.2 6.4 0.00 0.00 0.00 31 1009.4
20260504041136 25 315 4.8 8.0 0.00 0.00 0.00 30 1009.2
20260504040116 25 338 4.8 6.4 0.00 0.00 0.00 29 1009.2
20260504035158 26 315 4.8 6.4 0.00 0.00 0.00 29 1009.1
20260504034116 26 315 4.8 8.0 0.00 0.00 0.00 28 1009.1
20260504033118 26 315 4.8 6.4 0.00 0.00 0.00 28 1009.0
20260504032117 26 315 3.2 8.0 0.00 0.00 0.00 27 1008.9
20260504031117 27 315 8.0 12.9 0.00 0.00 0.00 26 1008.8
20260504030117 27 315 9.7 16.1 0.00 0.00 0.00 25 1008.8
20260504025118 27 315 6.4 9.7 0.00 0.00 0.00 24 1008.8
20260504024158 27 315 6.4 9.7 0.00 0.00 0.00 23 1008.6
20260504023117 28 315 6.4 12.9 0.00 0.00 0.00 23 1008.7
20260504022117 28 338 6.4 12.9 0.00 0.00 0.00 22 1008.8
20260504021117 28 315 8.0 14.5 0.00 0.00 0.00 22 1008.7
20260504020117 28 315 8.0 12.9 0.00 0.00 0.00 21 1008.8
20260504015117 29 315 9.7 14.5 0.00 0.00 0.00 20 1008.8
20260504014118 29 0 8.0 14.5 0.00 0.00 0.00 20 1008.8
20260504013137 30 315 8.0 12.9 0.00 0.00 0.00 18 1009.0
20260504012117 31 0 8.0 16.1 0.00 0.00 0.00 17 1009.2
20260504011117 31 338 9.7 16.1 0.00 0.00 0.00 17 1009.4
20260504010137 31 293 11.3 17.7 0.00 0.00 0.00 16 1009.6
20260504005117 32 315 9.7 16.1 0.00 0.00 0.00 16 1009.7
20260504004117 32 338 6.4 9.7 0.00 0.00 0.00 18 1009.7
20260504003117 32 338 8.0 12.9 0.00 0.00 0.00 16 1009.7
20260504002117 32 315 8.0 16.1 0.00 0.00 0.00 15 1009.8
20260504001117 32 315 8.0 14.5 0.00 0.00 0.00 14 1009.9
20260504000117 32 315 9.7 17.7 0.00 0.00 0.00 14 1010.0
20260503235117 32 0 3.2 8.0 0.00 0.00 0.00 16 1010.0
20260503234137 32 315 6.4 11.3 0.00 0.00 0.00 14 1010.1
20260503233138 32 338 12.9 16.1 0.00 0.00 0.00 14 1010.3
20260503232117 33 338 6.4 11.3 0.00 0.00 0.00 13 1010.4
20260503231158 33 0 6.4 9.7 0.00 0.00 0.00 15 1010.5
20260503230117 33 315 8.0 11.3 0.00 0.00 0.00 14 1010.6
20260503225116 33 270 6.4 9.7 0.00 0.00 0.00 14 1010.8
20260503224117 33 23 3.2 6.4 0.00 0.00 0.00 16 1010.9
20260503223116 33 0 4.8 6.4 0.00 0.00 0.00 15 1011.0
20260503222116 33 338 3.2 4.8 0.00 0.00 0.00 16 1011.2